"2009-07-24 00:00:00",1088929,2.783,22.64,4.917,0.215,22.16,111.2792,28.18,29.13,16.44,0,111.5,13.06,29.03,344.6
"2009-07-24 00:00:30",1088930,1.836,24.95,12.73,0.193,22.14,111.294,28.22,29.15,16.38,0,111.5,13.06,29.07,347.0
"2009-07-24 00:01:00",1088931,1.213,13.8,18.17,0.493,22.52,111.2972,28.23,29.17,16.34,0,111.5,13.06,29.08,335.8
"2009-07-24 00:01:30",1088932,0.78,17.96,14.97,0.319,22.45,111.3028,28.24,29.19,16.33,0,111.5,13.06,29.09,340.0
"2009-07-24 00:02:00",1088933,0.742,28.95,18.91,0.367,22.16,111.3194,28.29,29.22,16.34,0,111.5,13.06,29.14,351.0
"2009-07-24 00:02:30",1088934,0.666,4.121,17.68,0.513,22.63,111.326,28.3,29.25,16.34,0,111.5,13.06,29.15,326.1
"2009-07-24 00:03:00",1088935,0.585,3.805,17.79,0.38,22.6,111.3288,28.31,29.25,16.28,0,111.5,13.06,29.16,325.8
"2009-07-24 00:03:30",1088936,2.022,341,20.29,0.763,22.3,111.3255,28.3,29.27,16.26,0,111.5,13.06,29.15,303.0
"2009-07-24 00:04:00",1088937,1.248,357.2,17.25,0.822,22.67,111.2918,28.22,29.24,16.36,0,111.5,13.06,29.07,319.2
"2009-07-24 00:04:30",1088938,3.211,323.7,4.529,0.39,22,111.2733,28.17,29.19,16.31,0,111.5,13.06,29.02,285.7
"2009-07-24 00:05:00",1088939,2.889,313.7,11.51,0.616,22.1,111.2621,28.14,29.17,16.33,0,111.5,13.06,28.99,275.7
"2009-07-24 00:05:30",1088940,2.076,341.2,10.56,0.281,22.2,111.252,28.11,29.11,16.35,0,111.5,13.06,28.96,303.2
"2009-07-24 00:06:00",1088941,1.509,340.3,13.67,0.257,22.27,111.2572,28.13,29.11,16.4,0,111.6,13.06,28.98,302.3
"2009-07-24 00:06:30",1088942,2.023,329,8.63,0.304,22.05,111.2393,28.08,29.09,16.35,0,111.6,13.06,28.93,291.0
"2009-07-24 00:07:00",1088943,2.89,321.9,11.19,0.705,22.24,111.2368,28.07,29.09,16.36,0,111.6,13.06,28.92,283.9
"2009-07-24 00:07:30",1088944,2.484,334.1,15.48,0.462,22.42,111.2239,28.04,29.04,16.39,0,111.6,13.06,28.89,296.1
"2009-07-24 00:08:00",1088945,2.445,343.3,10.52,0.577,22.47,111.2223,28.04,29.05,16.4,0,111.6,13.06,28.89,305.3
"2009-07-24 00:08:30",1088946,2.63,322.7,15.62,0.562,22.36,111.215,28.02,29.01,16.51,0,111.6,13.06,28.87,284.7
"2009-07-24 00:09:00",1088947,2.623,312.5,9.67,0.432,22.25,111.2122,28.01,29.02,16.55,0,111.6,13.06,28.86,274.5
"2009-07-24 00:09:30",1088948,2.272,335.7,14.23,0.241,22.24,111.1928,27.96,28.99,16.44,0,111.6,13.06,28.81,297.7
"2009-07-24 00:10:00",1088949,1.65,355.9,15.35,0.525,22.48,111.1706,27.9,28.97,16.46,0,111.6,13.06,28.75,317.9
"2009-07-24 00:10:30",1088950,2.963,341.1,8.61,0.357,22.27,111.1744,27.91,28.95,16.58,0,111.6,13.06,28.76,303.1
"2009-07-24 00:11:00",1088951,2.443,336.7,4.05,0.364,22.21,111.1812,27.93,28.93,16.66,0,111.6,13.06,28.78,298.7
"2009-07-24 00:11:30",1088952,1.817,334.8,8.72,0.288,22.22,111.1867,27.95,28.94,16.64,0,111.6,13.06,28.79,296.8
"2009-07-24 00:12:00",1088953,2.034,335.3,4.396,0.237,22.19,111.1996,27.98,28.96,16.63,0,111.6,13.06,28.83,297.3
"2009-07-24 00:12:30",1088954,1.139,341.6,18.4,0.361,22.31,111.2133,28.01,28.98,16.6,0,111.6,13.06,28.86,303.6
"2009-07-24 00:13:00",1088955,1.029,300.9,25.94,0.238,22.06,111.2176,28.02,29,16.58,0,111.6,13.06,28.87,262.9
"2009-07-24 00:13:30",1088956,1.362,308.6,18.43,0.511,22.03,111.227,28.05,29,16.64,0,111.6,13.06,28.90,270.6
"2009-07-24 00:14:00",1088957,2.446,345.9,13.95,0.391,22.16,111.2442,28.09,29.02,16.55,0,111.6,13.06,28.94,307.9
"2009-07-24 00:14:30",1088958,1.972,354.2,18.31,0.412,22.2,111.246,28.1,29.04,16.48,0,111.6,13.06,28.95,316.2
"2009-07-24 00:15:00",1088959,1.438,2.058,17.33,0.523,22.21,111.2509,28.11,29.06,16.46,0,111.6,13.06,28.96,324.1
"2009-07-24 00:15:30",1088960,2.08,340.9,11.41,0.28,22.13,111.2577,28.13,29.09,16.48,0,111.6,13.06,28.98,302.9
"2009-07-24 00:16:00",1088961,1.897,343.5,8.85,0.44,22.27,111.2705,28.16,29.1,16.72,0,111.6,13.06,29.01,305.5
"2009-07-24 00:16:30",1088962,0.945,337.7,15.28,0.375,22.15,111.2794,28.18,29.13,16.68,0,111.6,13.06,29.03,299.7
"2009-07-24 00:17:00",1088963,0.852,329.4,8.96,0.216,22.09,111.2817,28.19,29.14,16.71,0,111.6,13.06,29.04,291.4
"2009-07-24 00:17:30",1088964,1.112,338.8,15.73,0.382,22.1,111.2852,28.2,29.16,16.59,0,111.6,13.05,29.05,300.8
"2009-07-24 00:18:00",1088965,2.492,344.8,11.17,0.333,22.35,111.2731,28.17,29.17,17.2,0,111.6,13.05,29.02,306.8
"2009-07-24 00:18:30",1088966,2.288,339.1,6.931,0.334,22.27,111.2572,28.13,29.15,17.43,0,111.6,13.05,28.98,301.1
"2009-07-24 00:19:00",1088967,2.231,335.9,4.255,0.328,22.16,111.2734,28.17,29.15,17.33,0,111.6,13.05,29.02,297.9
"2009-07-24 00:19:30",1088968,1.993,349.9,14.25,0.633,22.48,111.2802,28.19,29.16,17.18,0,111.6,13.05,29.04,311.9
"2009-07-24 00:20:00",1088969,2.14,344.2,9.97,0.541,22.32,111.2783,28.18,29.17,17.11,0,111.6,13.05,29.03,306.2
"2009-07-24 00:20:30",1088970,2.189,327.4,5.05,0.417,22.11,111.2842,28.2,29.17,17.1,0,111.6,13.05,29.05,289.4
"2009-07-24 00:21:00",1088971,1.727,322.3,6.433,0.429,22.18,111.2901,28.21,29.19,17.07,0,111.6,13.05,29.06,284.3
"2009-07-24 00:21:30",1088972,1.262,323.3,7.957,0.127,22.2,111.3047,28.25,29.2,16.92,0,111.6,13.05,29.10,285.3
"2009-07-24 00:22:00",1088973,1.136,5.025,24.26,0.146,22.13,111.3107,28.26,29.22,16.91,0,111.6,13.05,29.11,327.0
"2009-07-24 00:22:30",1088974,1.011,25.09,13.43,0.327,22.22,111.3147,28.27,29.23,17.07,0,111.6,13.05,29.12,347.1
"2009-07-24 00:23:00",1088975,0.585,31.84,20.92,0.129,22.09,111.3166,28.28,29.26,17.1,0,111.6,13.06,29.13,353.8
"2009-07-24 00:23:30",1088976,1.202,311.4,17.29,0.642,22.1,111.3151,28.28,29.27,17.13,0,111.6,13.06,29.13,273.4
"2009-07-24 00:24:00",1088977,2.177,332,8.75,0.223,22.23,111.3065,28.25,29.27,17.42,0,111.6,13.06,29.10,294.0
"2009-07-24 00:24:30",1088978,2.087,334.3,9.85,0.384,22.28,111.2751,28.17,29.24,17.24,0,111.6,13.06,29.02,296.3
"2009-07-24 00:25:00",1088979,3.238,328,8.78,0.304,22.21,111.2771,28.18,29.22,17.11,0,111.6,13.06,29.03,290.0
"2009-07-24 00:25:30",1088980,2.85,321.5,4.25,0.336,22.36,111.2762,28.18,29.22,17.14,0,111.6,13.06,29.03,283.5
"2009-07-24 00:26:00",1088981,2.858,317.4,6.47,0.289,22.39,111.258,28.13,29.19,17.36,0,111.6,13.06,28.98,279.4
"2009-07-24 00:26:30",1088982,1.93,318.4,8.57,0.324,22.53,111.2206,28.03,29.13,17.57,0,111.6,13.06,28.88,280.4
"2009-07-24 00:27:00",1088983,1.553,339.8,11.78,0.408,22.75,111.1758,27.92,29.06,17.85,0,111.6,13.06,28.77,301.8
"2009-07-24 00:27:30",1088984,1.135,349.5,18.82,0.497,22.7,111.1399,27.82,28.99,17.94,0,111.6,13.06,28.67,311.5
"2009-07-24 00:28:00",1088985,1.36,331.2,11.73,0.363,22.45,111.1284,27.8,28.93,18.06,0,111.6,13.06,28.64,293.2
"2009-07-24 00:28:30",1088986,1.018,354.6,15.38,0.404,22.59,111.1278,27.79,28.89,18.04,0,111.6,13.06,28.64,316.6
"2009-07-24 00:29:00",1088987,1.45,344.4,11.41,0.316,22.39,111.1298,27.8,28.87,17.94,0,111.6,13.06,28.65,306.4
"2009-07-24 00:29:30",1088988,1.097,5.358,13.4,0.532,22.67,111.1379,27.82,28.87,17.79,0,111.6,13.06,28.67,327.4
"2009-07-24 00:30:00",1088989,1.365,10.6,16.95,0.67,22.46,111.1444,27.84,28.87,17.95,0,111.6,13.06,28.69,332.6
"2009-07-24 00:30:30",1088990,1.727,356.2,10.08,0.688,22.61,111.1444,27.84,28.88,17.88,0,111.6,13.06,28.69,318.2
"2009-07-24 00:31:00",1088991,1.675,356.7,10.78,0.556,22.55,111.1376,27.82,28.86,17.73,0,111.6,13.06,28.67,318.7
"2009-07-24 00:31:30",1088992,1.696,352.1,9.99,0.388,22.44,111.1371,27.82,28.85,17.79,0,111.6,13.06,28.67,314.1
"2009-07-24 00:32:00",1088993,1.01,6.803,13.44,0.473,22.57,111.1463,27.84,28.85,17.75,0,111.6,13.06,28.69,328.8
"2009-07-24 00:32:30",1088994,1.614,344.7,13.95,0.319,22.3,111.1589,27.87,28.86,17.69,0,111.6,13.06,28.72,306.7
"2009-07-24 00:33:00",1088995,1.461,356.3,8.86,0.544,22.7,111.1634,27.89,28.88,17.4,0,111.6,13.06,28.73,318.3
"2009-07-24 00:33:30",1088996,1.078,12.49,9.13,0.292,22.47,111.171,27.9,28.89,17.28,0,111.6,13.06,28.75,334.5
"2009-07-24 00:34:00",1088997,1.593,29.25,6.161,0.283,22.16,111.1847,27.94,28.9,17.26,0,111.6,13.06,28.79,351.2
"2009-07-24 00:34:30",1088998,1.625,41.29,3.625,0.099,22.25,111.197,27.97,28.92,17.21,0,111.6,13.05,28.82,3.3
"2009-07-24 00:35:00",1088999,1.223,33.23,7.754,0.259,22.31,111.2021,27.98,28.94,17.18,0,111.6,13.05,28.83,355.2
"2009-07-24 00:35:30",1089000,0.438,6.711,17.19,0.237,22.64,111.2152,28.02,28.97,17.12,0,111.6,13.05,28.87,328.7
"2009-07-24 00:36:00",1089001,0.344,6.777,22.48,0.176,22.66,111.2284,28.05,29,17.07,0,111.6,13.05,28.90,328.8
"2009-07-24 00:36:30",1089002,0.536,14.76,11.99,0.101,22.55,111.2307,28.06,29,17.07,0,111.6,13.05,28.91,336.8
"2009-07-24 00:37:00",1089003,0.3,9.38,26.37,0.129,22.57,111.2379,28.08,29.03,17.02,0,111.6,13.05,28.93,331.4
"2009-07-24 00:37:30",1089004,0.552,316.1,4.325,0.133,22.56,111.2444,28.09,29.05,17,0,111.6,13.05,28.94,278.1
"2009-07-24 00:38:00",1089005,0.57,322.9,6.643,0.145,22.63,111.257,28.13,29.07,16.99,0,111.6,13.05,28.98,284.9
"2009-07-24 00:38:30",1089006,0.033,345.6,19.96,0.077,23.2,111.2646,28.15,29.09,16.95,0,111.6,13.05,29.00,307.6
"2009-07-24 00:39:00",1089007,0.067,10.67,24.06,0.122,22.99,111.2646,28.15,29.12,16.78,0,111.6,13.05,29.00,332.7
"2009-07-24 00:39:30",1089008,0.209,319.8,52,0.187,22.76,111.2584,28.13,29.13,16.86,0,111.6,13.05,28.98,281.8
"2009-07-24 00:40:00",1089009,0.382,358.5,23.22,0.199,22.76,111.2411,28.08,29.12,17.21,0,111.6,13.05,28.93,320.5
"2009-07-24 00:40:30",1089010,0.92,316.5,7.954,0.314,22.72,111.2492,28.11,29.12,17.23,0,111.6,13.05,28.96,278.5
"2009-07-24 00:41:00",1089011,2.108,322,7.996,0.331,22.78,111.2588,28.13,29.1,17.41,0,111.6,13.05,28.98,284.0
"2009-07-24 00:41:30",1089012,1.958,311.3,5.834,0.425,22.83,111.2574,28.13,29.12,17.36,0,111.6,13.05,28.98,273.3
"2009-07-24 00:42:00",1089013,0.896,309.4,6.312,0.214,22.84,111.2632,28.14,29.11,17.13,0,111.6,13.06,28.99,271.4
"2009-07-24 00:42:30",1089014,0.244,300.3,14.91,0.165,22.83,111.253,28.12,29.11,17.2,0,111.6,13.06,28.97,262.3
"2009-07-24 00:43:00",1089015,0.429,301.8,15.74,0.157,22.85,111.2477,28.1,29.11,17.29,0,111.6,13.06,28.95,263.8
"2009-07-24 00:43:30",1089016,0.808,309.3,10.75,0.207,22.87,111.2453,28.1,29.12,17.17,0,111.6,13.06,28.95,271.3
"2009-07-24 00:44:00",1089017,1.027,333.4,6.059,0.109,22.86,111.2472,28.1,29.09,17.06,0,111.6,13.06,28.95,295.4
"2009-07-24 00:44:30",1089018,1.352,330.1,6.558,0.228,22.9,111.2476,28.1,29.08,17.35,0,111.6,13.06,28.95,292.1
"2009-07-24 00:45:00",1089019,1.74,324,5.271,0.187,22.92,111.248,28.1,29.09,17.42,0,111.6,13.06,28.95,286.0
"2009-07-24 00:45:30",1089020,0.94,356.6,20.26,0.365,23.04,111.2449,28.09,29.08,17.33,0,111.6,13.06,28.94,318.6
"2009-07-24 00:46:00",1089021,0.311,353.9,14.03,0.317,23.24,111.2292,28.05,29.07,17.35,0,111.6,13.06,28.90,315.9
"2009-07-24 00:46:30",1089022,0.343,4.083,9.1,0.179,23.28,111.2276,28.05,29.07,17.22,0,111.6,13.06,28.90,326.1
"2009-07-24 00:47:00",1089023,0.692,0.894,7.689,0.18,23.03,111.2248,28.04,29.05,17.11,0,111.5,13.06,28.89,322.9
"2009-07-24 00:47:30",1089024,0.829,13.72,6.098,0.159,22.92,111.2248,28.04,29.05,17.08,0,111.5,13.06,28.89,335.7
"2009-07-24 00:48:00",1089025,1.032,25.73,7.212,0.126,22.86,111.2184,28.03,29.02,17.08,0,111.5,13.06,28.88,347.7
"2009-07-24 00:48:30",1089026,1.571,16.13,10.03,0.262,22.89,111.2021,27.98,29.01,17.23,0,111.5,13.06,28.83,338.1
"2009-07-24 00:49:00",1089027,0.935,358.6,15.61,0.417,23.11,111.1979,27.97,29,17.38,0,111.5,13.06,28.82,320.6
"2009-07-24 00:49:30",1089028,0.723,4.358,17.07,0.631,23.13,111.1921,27.96,29,17.48,0,111.5,13.06,28.81,326.4
"2009-07-24 00:50:00",1089029,1.217,17.4,9.31,0.554,22.99,111.1863,27.94,28.98,17.5,0,111.5,13.06,28.79,339.4
"2009-07-24 00:50:30",1089030,0.556,11.44,11.71,0.403,23.04,111.1779,27.92,28.96,17.53,0,111.5,13.06,28.77,333.4
"2009-07-24 00:51:00",1089031,0.416,4.497,14.81,0.262,23.18,111.1721,27.91,28.95,17.56,0,111.5,13.06,28.76,326.5
"2009-07-24 00:51:30",1089032,0.775,351,13.28,0.263,23.01,111.1554,27.86,28.91,17.73,0,111.5,13.06,28.71,313.0
"2009-07-24 00:52:00",1089033,1.09,330.9,12.6,0.269,22.9,111.1417,27.83,28.89,17.84,0,111.5,13.06,28.68,292.9
"2009-07-24 00:52:30",1089034,0.322,5.192,14.35,0.175,23.23,111.1324,27.81,28.87,17.95,0,111.5,13.06,28.65,327.2
"2009-07-24 00:53:00",1089035,0.665,350.6,9.93,0.278,23.04,111.1226,27.78,28.85,18.15,0,111.5,13.06,28.63,312.6
"2009-07-24 00:53:30",1089036,1.237,350.3,10.71,0.46,23,111.1086,27.74,28.82,18.23,0,111.5,13.06,28.59,312.3
"2009-07-24 00:54:00",1089037,1.43,0.539,6.204,0.234,23,111.103,27.73,28.79,18.18,0,111.5,13.06,28.58,322.5
"2009-07-24 00:54:30",1089038,1.219,10.03,9.67,0.268,23,111.1001,27.72,28.77,18.1,0,111.5,13.06,28.57,332.0
"2009-07-24 00:55:00",1089039,1.608,16.46,3.35,0.335,22.92,111.0858,27.69,28.76,18.05,0,111.5,13.06,28.53,338.5
"2009-07-24 00:55:30",1089040,2.286,11.11,4.164,0.413,22.95,111.0768,27.66,28.74,18.14,0,111.5,13.06,28.51,333.1
"2009-07-24 00:56:00",1089041,2.244,18.24,2.992,0.246,22.9,111.0769,27.66,28.73,18.27,0,111.5,13.06,28.51,340.2
"2009-07-24 00:56:30",1089042,1.421,13.29,6.147,0.295,22.95,111.0665,27.64,28.69,18.26,0,111.5,13.06,28.48,335.3
"2009-07-24 00:57:00",1089043,1.147,3.28,6.054,0.229,22.98,111.0594,27.62,28.67,18.12,0,111.5,13.06,28.47,325.3
"2009-07-24 00:57:30",1089044,1.212,14.64,8.46,0.343,22.95,111.053,27.6,28.67,18.15,0,111.5,13.07,28.45,336.6
"2009-07-24 00:58:00",1089045,2.043,24.47,8.88,0.461,22.94,111.0439,27.58,28.64,18.37,0,111.5,13.07,28.43,346.5
"2009-07-24 00:58:30",1089046,2.313,25.11,3.722,0.221,22.91,111.0323,27.55,28.61,18.5,0,111.5,13.07,28.40,347.1
"2009-07-24 00:59:00",1089047,2.057,29.05,2.764,0.203,22.96,111.0258,27.53,28.59,18.52,0,111.5,13.07,28.38,351.0
"2009-07-24 00:59:30",1089048,2.192,31.47,3.324,0.393,22.97,111.0155,27.5,28.56,18.53,0,111.5,13.07,28.35,353.5
"2009-07-24 01:00:00",1089049,2.249,24.37,3.77,0.368,22.9,110.9976,27.46,28.55,18.62,0,111.4,13.07,28.31,346.4
"2009-07-24 01:00:30",1089050,1.994,22.81,2.443,0.14,22.95,110.9925,27.45,28.52,18.7,0,111.4,13.07,28.29,344.8
"2009-07-24 01:01:00",1089051,1.809,23.25,2.977,0.175,22.94,110.9762,27.4,28.48,18.74,0,111.4,13.07,28.25,345.2
"2009-07-24 01:01:30",1089052,1.685,23,3.155,0.254,22.92,110.9697,27.39,28.47,18.79,0,111.4,13.07,28.23,345.0
"2009-07-24 01:02:00",1089053,1.939,34.92,5.128,0.207,22.99,110.967,27.38,28.44,18.73,0,111.4,13.07,28.23,356.9
"2009-07-24 01:02:30",1089054,1.71,28.5,2.918,0.338,22.97,110.9502,27.34,28.41,18.73,0,111.4,13.07,28.18,350.5
"2009-07-24 01:03:00",1089055,1.567,34.16,8.56,0.239,22.98,110.9368,27.3,28.4,18.78,0,111.4,13.07,28.15,356.2
"2009-07-24 01:03:30",1089056,2.126,51.05,3.077,0.312,22.99,110.9312,27.29,28.36,18.65,0,111.4,13.07,28.14,13.0
"2009-07-24 01:04:00",1089057,1.737,45.7,5.562,0.32,23.02,110.9118,27.24,28.34,18.7,0,111.4,13.07,28.09,7.7
"2009-07-24 01:04:30",1089058,2.045,46.08,9.1,0.182,22.94,110.9029,27.22,28.31,18.77,0,111.4,13.07,28.06,8.1
"2009-07-24 01:05:00",1089059,2.287,39.71,3.369,0.236,23.01,110.897,27.2,28.29,18.79,0,111.4,13.08,28.05,1.7
"2009-07-24 01:05:30",1089060,1.986,38.72,4.098,0.195,22.92,110.8783,27.15,28.27,18.81,0,111.4,13.08,28.00,0.7
"2009-07-24 01:06:00",1089061,1.883,38.64,5.06,0.273,22.88,110.8715,27.13,28.23,18.87,0,111.4,13.08,27.98,0.6
"2009-07-24 01:06:30",1089062,2.206,40.88,2.775,0.117,22.93,110.8638,27.11,28.23,18.96,0,111.4,13.08,27.96,2.9
"2009-07-24 01:07:00",1089063,2.482,44.13,1.756,0.271,22.93,110.8448,27.07,28.18,19,0,111.4,13.08,27.91,6.1
"2009-07-24 01:07:30",1089064,2.913,46.7,2.329,0.06,23.01,110.8413,27.06,28.15,18.97,0,111.4,13.08,27.90,8.7
"2009-07-24 01:08:00",1089065,2.08,39.09,6.029,0.509,22.96,110.8351,27.04,28.13,19.05,0,111.4,13.08,27.89,1.1
"2009-07-24 01:08:30",1089066,2.102,41.01,5.066,0.303,22.94,110.8274,27.02,28.12,19.1,0,111.4,13.07,27.87,3.0
"2009-07-24 01:09:00",1089067,2.01,48.31,3.848,0.088,22.96,110.8237,27.01,28.09,19.16,0,111.4,13.07,27.86,10.3
"2009-07-24 01:09:30",1089068,1.932,50.02,4.401,0.104,22.97,110.8214,27.01,28.08,19.27,0,111.4,13.07,27.85,12.0
"2009-07-24 01:10:00",1089069,1.902,44.44,2.568,0.088,22.99,110.8091,26.97,28.05,19.32,0,111.4,13.07,27.82,6.4
"2009-07-24 01:10:30",1089070,2.125,39.69,2.551,0.105,22.84,110.8001,26.95,28.03,19.34,0,111.4,13.07,27.80,1.7
"2009-07-24 01:11:00",1089071,1.931,41.68,1.76,0.091,22.88,110.7946,26.94,28.01,19.37,0,111.4,13.07,27.78,3.7
"2009-07-24 01:11:30",1089072,1.948,39.65,3.353,0.149,22.92,110.7936,26.93,27.99,19.36,0,111.4,13.07,27.78,1.7
"2009-07-24 01:12:00",1089073,1.957,46.02,3.34,0.11,23.03,110.7821,26.9,27.97,19.32,0,111.4,13.07,27.75,8.0
"2009-07-24 01:12:30",1089074,2.262,55.67,4.772,0.208,23,110.7709,26.88,27.96,19.27,0,111.4,13.07,27.72,17.7
"2009-07-24 01:13:00",1089075,2.306,64.24,4.015,0.176,22.98,110.7699,26.87,27.93,19.2,0,111.4,13.07,27.72,26.2
"2009-07-24 01:13:30",1089076,2.32,64.83,6.818,0.115,23.02,110.7688,26.87,27.91,19.26,0,111.3,13.08,27.72,26.8
"2009-07-24 01:14:00",1089077,2.293,55.64,1.308,0.102,23.01,110.7553,26.84,27.9,19.27,0,111.3,13.08,27.68,17.6
"2009-07-24 01:14:30",1089078,2.386,61.34,5.074,0.119,22.97,110.7458,26.81,27.89,19.36,0,111.3,13.08,27.66,23.3
"2009-07-24 01:15:00",1089079,2.46,67.9,3.552,0.084,23.01,110.7399,26.8,27.88,19.45,0,111.3,13.09,27.64,29.9
"2009-07-24 01:15:30",1089080,2.427,65.26,5.385,0.154,23,110.7371,26.79,27.86,19.63,0,111.3,13.09,27.63,27.3
"2009-07-24 01:16:00",1089081,2.134,59.78,2.637,0.169,22.93,110.7368,26.79,27.85,19.79,0,111.3,13.09,27.63,21.8
"2009-07-24 01:16:30",1089082,1.837,59.41,5.735,0.172,22.96,110.7295,26.77,27.84,19.83,0,111.3,13.09,27.61,21.4
"2009-07-24 01:17:00",1089083,1.68,53.29,3.175,0.136,22.87,110.7209,26.75,27.83,19.72,0,111.3,13.09,27.59,15.3
"2009-07-24 01:17:30",1089084,1.878,49.35,5.948,0.186,22.73,110.7155,26.73,27.82,19.69,0,111.3,13.09,27.58,11.3
"2009-07-24 01:18:00",1089085,2.051,44.54,6.158,0.267,22.69,110.7108,26.72,27.82,19.73,0,111.3,13.09,27.57,6.5
"2009-07-24 01:18:30",1089086,1.848,42.17,4.623,0.144,22.67,110.7055,26.71,27.79,19.72,0,111.3,13.09,27.55,4.2
"2009-07-24 01:19:00",1089087,2.12,51.57,5.151,0.12,22.6,110.7084,26.72,27.78,19.8,0,111.3,13.09,27.56,13.6
"2009-07-24 01:19:30",1089088,2.021,56.44,3.69,0.092,22.62,110.7146,26.73,27.78,19.79,0,111.3,13.09,27.58,18.4
"2009-07-24 01:20:00",1089089,2.11,49.92,2.895,0.056,22.76,110.7157,26.73,27.77,19.78,0,111.3,13.09,27.58,11.9
"2009-07-24 01:20:30",1089090,1.905,47.36,2.904,0.106,22.8,110.7222,26.75,27.77,19.67,0,111.3,13.09,27.60,9.4
"2009-07-24 01:21:00",1089091,1.391,68.55,6.867,0.186,22.79,110.72,26.75,27.76,19.67,0,111.3,13.09,27.59,30.6
"2009-07-24 01:21:30",1089092,1.574,66.2,4.515,0.171,22.79,110.719,26.74,27.77,19.71,0,111.3,13.09,27.59,28.2
"2009-07-24 01:22:00",1089093,1.848,55.75,3.09,0.092,22.83,110.721,26.75,27.75,19.8,0,111.3,13.09,27.59,17.8
"2009-07-24 01:22:30",1089094,2.247,57.05,3.284,0.206,22.85,110.723,26.75,27.75,19.97,0,111.3,13.09,27.60,19.0
"2009-07-24 01:23:00",1089095,2.056,51.39,3.814,0.158,22.89,110.7182,26.74,27.74,20.11,0,111.3,13.09,27.59,13.4
"2009-07-24 01:23:30",1089096,2.231,45.89,2.388,0.163,22.82,110.7154,26.73,27.76,20.12,0,111.3,13.09,27.58,7.9
"2009-07-24 01:24:00",1089097,1.801,47.83,2.354,0.14,22.95,110.7081,26.71,27.73,20.07,0,111.3,13.09,27.56,9.8
"2009-07-24 01:24:30",1089098,1.69,58.44,11.34,0.266,22.95,110.7062,26.71,27.74,20.24,0,111.3,13.09,27.55,20.4
"2009-07-24 01:25:00",1089099,1.404,67.65,6.447,0.217,22.91,110.7056,26.71,27.75,20.09,0,111.3,13.09,27.55,29.7
"2009-07-24 01:25:30",1089100,1.668,87.4,5.156,0.118,23,110.702,26.7,27.73,20.25,0,111.3,13.09,27.54,49.4
"2009-07-24 01:26:00",1089101,1.723,80.8,5.938,0.165,23.03,110.6996,26.69,27.72,20.3,0,111.3,13.09,27.54,42.8
"2009-07-24 01:26:30",1089102,1.583,87.5,1.811,0.175,22.98,110.7021,26.7,27.73,20.41,0,111.3,13.09,27.54,49.5
"2009-07-24 01:27:00",1089103,1.305,83.4,3.007,0.102,23.07,110.7049,26.71,27.72,20.47,0,111.3,13.09,27.55,45.4
"2009-07-24 01:27:30",1089104,1.393,84.2,1.35,0.085,23.1,110.7071,26.71,27.7,20.35,0,111.3,13.09,27.56,46.2
"2009-07-24 01:28:00",1089105,1.596,88.1,2.562,0.11,23.04,110.702,26.7,27.7,20.38,0,111.3,13.09,27.54,50.1
"2009-07-24 01:28:30",1089106,1.682,65.31,12.16,0.158,22.96,110.6944,26.68,27.71,20.3,0,111.3,13.09,27.52,27.3
"2009-07-24 01:29:00",1089107,1.562,41.66,2.799,0.101,22.98,110.6827,26.65,27.69,19.97,0,111.3,13.09,27.49,3.7
"2009-07-24 01:29:30",1089108,1.105,32.34,5.279,0.203,22.94,110.6818,26.65,27.68,19.88,0,111.3,13.09,27.49,354.3
"2009-07-24 01:30:00",1089109,1.064,26.11,4.293,0.136,22.98,110.6782,26.64,27.69,19.88,0,111.3,13.09,27.48,348.1
"2009-07-24 01:30:30",1089110,1.416,38.66,2.843,0.199,23.02,110.6745,26.63,27.68,20.02,0,111.3,13.09,27.47,0.7
"2009-07-24 01:31:00",1089111,1.4,41.11,2.666,0.081,22.98,110.6734,26.63,27.66,20.25,0,111.3,13.09,27.47,3.1
"2009-07-24 01:31:30",1089112,1.596,41.43,2.472,0.117,23.07,110.6726,26.62,27.65,20.29,0,111.3,13.09,27.47,3.4
"2009-07-24 01:32:00",1089113,1.707,50.31,5.71,0.112,22.97,110.6616,26.59,27.65,20.26,0,111.3,13.09,27.44,12.3
"2009-07-24 01:32:30",1089114,1.632,52.39,3.069,0.126,22.96,110.651,26.57,27.63,20.21,0,111.3,13.09,27.41,14.4
"2009-07-24 01:33:00",1089115,1.381,38.25,6.291,0.185,22.95,110.647,26.56,27.63,20.06,0,111.3,13.09,27.40,0.2
"2009-07-24 01:33:30",1089116,1.079,47.05,7.618,0.244,22.98,110.6414,26.54,27.6,20.01,0,111.3,13.1,27.39,9.0
"2009-07-24 01:34:00",1089117,1.105,49.38,4.718,0.06,23.09,110.6407,26.54,27.6,20.18,0,111.3,13.1,27.39,11.4
"2009-07-24 01:34:30",1089118,1.244,44.79,1.957,0.064,22.99,110.639,26.54,27.58,20.13,0,111.3,13.1,27.38,6.8
"2009-07-24 01:35:00",1089119,1.251,42.77,1.64,0.047,22.92,110.6323,26.52,27.58,20.02,0,111.3,13.1,27.36,4.8
"2009-07-24 01:35:30",1089120,1.082,42.58,1.831,0.084,23.04,110.6305,26.51,27.58,20.07,0,111.3,13.1,27.36,4.6
"2009-07-24 01:36:00",1089121,0.893,52.92,9.42,0.075,23.03,110.6284,26.51,27.56,20.23,0,111.3,13.1,27.35,14.9
"2009-07-24 01:36:30",1089122,0.822,55.61,5.088,0.165,22.96,110.6267,26.51,27.55,20.4,0,111.3,13.1,27.35,17.6
"2009-07-24 01:37:00",1089123,1.225,55.98,2.924,0.092,23,110.6243,26.5,27.54,20.44,0,111.3,13.1,27.34,18.0
"2009-07-24 01:37:30",1089124,1.206,53.92,2.064,0.11,22.93,110.6238,26.5,27.53,20.48,0,111.3,13.1,27.34,15.9
"2009-07-24 01:38:00",1089125,1.288,50.75,2.421,0.068,22.93,110.6205,26.49,27.51,20.5,0,111.3,13.1,27.33,12.8
"2009-07-24 01:38:30",1089126,1.051,55.13,2.993,0.126,22.91,110.6112,26.47,27.51,20.52,0,111.3,13.1,27.31,17.1
"2009-07-24 01:39:00",1089127,1.488,51.28,2.946,0.109,22.89,110.6062,26.45,27.5,20.59,0,111.3,13.1,27.30,13.3
"2009-07-24 01:39:30",1089128,1.329,49.43,2.442,0.065,23.03,110.6025,26.44,27.48,20.74,0,111.3,13.1,27.29,11.4
"2009-07-24 01:40:00",1089129,1.317,44.69,1.648,0.051,22.93,110.6036,26.45,27.49,20.74,0,111.3,13.1,27.29,6.7
"2009-07-24 01:40:30",1089130,1.157,44.29,1.315,0.084,23,110.6005,26.44,27.47,20.72,0,111.3,13.1,27.28,6.3
"2009-07-24 01:41:00",1089131,0.988,43.64,1.537,0.08,23.06,110.5997,26.44,27.47,20.69,0,111.3,13.1,27.28,5.6
"2009-07-24 01:41:30",1089132,0.767,40.37,4.262,0.066,23.08,110.6,26.44,27.47,20.74,0,111.3,13.1,27.28,2.4
"2009-07-24 01:42:00",1089133,0.57,32,3.69,0.122,23.06,110.5972,26.43,27.45,20.79,0,111.3,13.1,27.27,354.0
"2009-07-24 01:42:30",1089134,0.512,29.1,5.3,0.092,23.01,110.5984,26.43,27.45,20.8,0,111.3,13.1,27.28,351.1
"2009-07-24 01:43:00",1089135,0.486,25.35,4.914,0.065,23,110.5885,26.41,27.43,20.81,0,111.3,13.1,27.25,347.4
"2009-07-24 01:43:30",1089136,0.401,15.97,6.406,0.073,22.92,110.58,26.39,27.41,20.83,0,111.3,13.1,27.23,338.0
"2009-07-24 01:44:00",1089137,0.324,19.92,7.239,0.071,22.91,110.5791,26.38,27.42,20.86,0,111.3,13.1,27.23,341.9
"2009-07-24 01:44:30",1089138,0.176,27.52,9.45,0.068,23.07,110.5776,26.38,27.41,20.81,0,111.3,13.1,27.22,349.5
"2009-07-24 01:45:00",1089139,0.248,27.22,8.72,0.101,23.07,110.5743,26.37,27.39,20.72,0,111.3,13.1,27.21,349.2
"2009-07-24 01:45:30",1089140,0.376,33.89,6.809,0.235,23.08,110.5759,26.37,27.38,20.54,0,111.2,13.1,27.22,355.9
"2009-07-24 01:46:00",1089141,0.5,33.83,8.14,0.164,23.09,110.5759,26.37,27.38,20.57,0,111.2,13.1,27.22,355.8
"2009-07-24 01:46:30",1089142,0.369,55.18,7.905,0.136,23.2,110.5748,26.37,27.38,20.49,0,111.2,13.1,27.22,17.2
"2009-07-24 01:47:00",1089143,0.837,68.54,6.451,0.208,23.25,110.5684,26.36,27.37,20.23,0,111.2,13.1,27.20,30.5
"2009-07-24 01:47:30",1089144,0.891,65.59,3.342,0.076,23.24,110.558,26.33,27.35,20.07,0,111.2,13.1,27.17,27.6